• Join FlightAware (Why Join?)
  • Login
  • US Flag 
04:47AM EST


 

Airport Tracker/Info


-or-


 

Live Flight TrackerFlight Track Log ✈ FLG3931 ✈ 13-May-2013 ✈ KMBS - KMSP

Flight Track Log - Related Links

Times and Time Zones

All times are in EDT time to prevent confusion due to time zone crossing. See the FLG3931 flight status page for this flight to view local times or setup timezone preferences in your user account.

Time Position Orientation Groundspeed Altitude Reporting Facility
EDT Latitude Longitude Course Direction KTS MPH feet Rate Location/Type
03:21PM 43.5953 -84.2542 296° West 257 296 24,000  Level Minneapolis Center
03:22PM 43.6856 -84.5305 299° West  Level FlightAware Approximate
03:22PM 43.6275 -84.3286 301° West 312 359 5,600  Level Minneapolis Center
03:23PM 43.7220 -84.6492 295° West  Level FlightAware Approximate
03:23PM 43.6550 -84.4156 294° West 262 302 8,100  Level Minneapolis Center
03:24PM 43.7615 -84.7678 295° West  Level FlightAware Approximate
03:24PM 43.6850 -84.5069 294° West 261 300 10,500  Level Minneapolis Center
03:25PM 43.8017 -84.8822 296° West  Level FlightAware Approximate
03:25PM 43.7153 -84.6008 294° West 266 306 12,300  Level Minneapolis Center
03:26PM 43.8420 -84.9966 296° West  Level FlightAware Approximate
03:26PM 43.7422 -84.7403 285° West 308 354 14,100  Level Minneapolis Center
03:27PM 43.7664 -84.8611 286° West 324 373 15,900 976 Climbing Minneapolis Center
03:28PM 43.7908 -84.9797 286° West 324 373 16,100 871 Climbing Minneapolis Center
03:29PM 43.8156 -85.1006 286° West 325 374 17,700 1,306 Climbing Minneapolis Center
03:30PM 43.8411 -85.2275 286° West 338 389 18,800 1,122 Climbing Minneapolis Center
03:31PM 43.8672 -85.3553 286° West 344 396 20,000 1,024 Climbing Minneapolis Center
03:32PM 43.8928 -85.4842 285° West 347 399 20,900 1,065 Climbing Minneapolis Center
03:33PM 43.9239 -85.6414 285° West 352 405 22,200 1,024 Climbing Minneapolis Center
03:34PM 43.9494 -85.7719 285° West 353 406 23,000 829 Climbing Minneapolis Center
03:35PM 43.9750 -85.9042 285° West 356 410 23,900 484 Climbing Minneapolis Center
03:36PM 44.0011 -86.0389 285° West 362 417 24,000 48 Climbing Minneapolis Center
03:37PM 44.0281 -86.1806 285° West 378 435 24,000  Level Minneapolis Center
03:38PM 44.0564 -86.3261 285° West 389 448 24,000  Level Minneapolis Center
03:39PM 44.0894 -86.5039 285° West 396 456 24,000  Level Minneapolis Center
03:40PM 44.1181 -86.6581 285° West 408 470 24,000  Level Minneapolis Center
03:41PM 44.1472 -86.8100 285° West 409 471 24,000  Level Minneapolis Center
03:42PM 44.1733 -86.9594 284° West 409 471 24,000  Level Minneapolis Center
03:43PM 44.2019 -87.1147 284° West 411 473 24,000  Level Minneapolis Center
03:44PM 44.2319 -87.2819 284° West 412 474 24,000  Level Minneapolis Center
03:45PM 44.2631 -87.4625 284° West 411 473 24,000  Level Minneapolis Center
03:46PM 44.2903 -87.6169 284° West 411 473 24,000  Level Minneapolis Center
03:47PM 44.3183 -87.7739 284° West 415 478 24,000  Level Minneapolis Center
03:48PM 44.3442 -87.9286 283° West 413 475 24,000  Level Minneapolis Center
03:49PM 44.3728 -88.0872 284° West 418 481 24,000  Level Minneapolis Center
03:50PM 44.3994 -88.2461 283° West 421 484 24,000  Level Minneapolis Center
03:52PM 44.4314 -88.4300 284° West 420 483 24,000  Level Minneapolis Center
03:53PM 44.4578 -88.5903 283° West 425 489 24,000  Level Minneapolis Center
03:54PM 44.4847 -88.7467 284° West 419 482 24,000  Level Minneapolis Center
03:55PM 44.5100 -88.9064 283° West 419 482 24,000  Level Minneapolis Center
03:56PM 44.5350 -89.0650 283° West 419 482 24,000  Level Minneapolis Center
03:57PM 44.5592 -89.2200 282° West 410 472 24,000  Level Minneapolis Center
03:58PM 44.5878 -89.3911 283° West 392 451 24,000  Level Minneapolis Center
03:59PM 44.6108 -89.5428 282° West 396 456 24,000  Level Minneapolis Center
04:00PM 44.6347 -89.6956 282° West 401 461 24,000  Level Minneapolis Center
04:01PM 44.6592 -89.8467 283° West 399 459 24,000  Level Minneapolis Center
04:02PM 44.6808 -89.9961 282° West 394 453 24,000  Level Minneapolis Center
04:03PM 44.7047 -90.1456 283° West 393 452 24,000  Level Minneapolis Center
04:04PM 44.7303 -90.3203 282° West 392 451 24,000  Level Minneapolis Center
04:05PM 44.7528 -90.4689 282° West 389 448 24,000  Level Minneapolis Center
04:06PM 44.7744 -90.6189 282° West 388 447 24,000  Level Minneapolis Center
04:07PM 44.7994 -90.7667 283° West 390 449 24,000  Level Minneapolis Center
04:08PM 44.8256 -90.9133 284° West 388 447 24,000  Level Minneapolis Center
04:09PM 44.8497 -91.0583 283° West 385 443 24,000  Level Minneapolis Center
04:10PM 44.8717 -91.2072 282° West 387 445 24,000 -97 Level Minneapolis Center
04:11PM 44.9036 -91.3872 284° West 394 453 23,800 -1,122 Descending Minneapolis Center
04:12PM 44.9278 -91.5292 284° West 384 442 21,700 -2,049 Descending Minneapolis Center
04:13PM 44.9511 -91.6683 283° West 371 427 19,600 -2,032 Descending Minneapolis Center
04:14PM 44.9728 -91.8067 283° West 367 422 17,500 -2,032 Descending Minneapolis Center
04:15PM 44.9953 -91.9364 284° West 342 394 15,400 -2,032 Descending Minneapolis Center
04:16PM 45.0144 -92.0567 283° West 317 365 13,300 -2,081 Descending Minneapolis Center
04:17PM 45.0361 -92.1939 283° West 299 344 11,100 -1,122 Descending Minneapolis Center
04:18PM 45.0478 -92.3072 278° West 295 339 11,000 -48 Descending Minneapolis Center
04:19PM 45.0281 -92.4219 256° West 303 349 11,000  Level Minneapolis Center
04:20PM 45.0103 -92.5367 258° West 301 346 11,000  Level Minneapolis Center
04:21PM 44.9914 -92.6522 257° West 303 349 11,000  Level Minneapolis Center
04:22PM 44.9731 -92.7664 257° West 300 345 11,000 -194 Level Minneapolis Center
04:23PM 44.9517 -92.8986 257° West 289 333 10,600 -1,113 Descending Minneapolis Center
04:24PM 44.9372 -92.9914 258° West 248 285 8,700 -1,258 Descending Minneapolis Center
04:26PM 44.9356 -93.0783 268° West 235 270 8,000 -581 Descending Minneapolis Center
04:27PM 44.9739 -93.1550 305° West 242 278 7,500 -1,500 Descending Minneapolis Center
04:28PM 45.0125 -93.2331 305° West 245 282 4,900 -1,694 Descending Minneapolis Center
04:29PM 45.0336 -93.3339 287° West 223 257 4,000 -629 Descending Minneapolis Center
04:30PM 44.9886 -93.3158 164° South 176 203 3,600 -774 Descending Minneapolis Center
04:31PM 44.9458 -93.2964 162° South 164 189 2,400 -919 Descending Minneapolis Center
04:32PM 44.9125 -93.2667 148° Southeast 142 163 1,700 -677 Descending Minneapolis Center